STARLINK-33719, 63578

Orbit data source: Space-Track

STARLINK-33719, 63578 is a payload satellite owned by SpaceX/Seattle (US) in LEO that was launched on Mon, 14 Apr 2025 UTC via an FALCON 9 launch vehicle from the Air Force Eastern Test Range (AFETR). Payload-class satellites include a variety of spacecraft equipped with specific instruments for various scientific and technological missions. These include communications satellites like Starlink; space stations such as the ISS; scientific satellites like the Hubble; Earth observation satellites from companies like Planet Labs, Umbra, and HawkEye 360; GPS; miniature CubeSats for education and research; and military/defense satellites.

Loading next visibility...
Identifier
63578, 2025-076K
Orbit
LEO
Last TLE update
4 hours ago
Origin
Manufacturer
SpaceX/Seattle
Mission
Operational Commercial Communications
Bus & Motor
STARLINK V2MO, Unknown motor
Mass
575 kg wet, ~530 kg dry
Launch date (UTC)
2025-04-14 (3 months ago)
Launch vehicle
FALCON 9
Launch site
Air Force Eastern Test Range (AFETR)
Object type
Payload
Rocket body
Debris
Shape & HBR
Box + 1 Pan, 29 m
Radar Cross Section
41.120 m², Large (>1 m²)

Expand to show TLE details & history

TLE from 4 hours ago
0 STARLINK-33719
1 63578U 25076K   25182.25002315  .00039349  00000-0  14323-2 0  9998
2 63578  42.9989 301.6183 0001670 260.3840 214.6199 15.27568406 13304
Epoch: 2025-07-01T06:00Z
TLE epoch observation values (Epoch: 2025-07-01T06:00:02Z)
Latitude
38.32377°
Longitude
54.60576°
Altitude
486.144 km
Speed
7.627 km/s
True Right ascension
04h 16m 38s
True Declination
38° 08' 60"
Sunlit
Object was in daylight at epoch
Visualization orbit readout
Latitude
37.87864°
Longitude
-12.93647°
Altitude
486.153 km
Speed
7.627 km/s
Apparent Right ascension
04h 04m 42s
Apparent Declination
3° 05' 21"
Sunlit
Object is in daylight
Visualization observer readout
Local Sidereal Time
22:07:34
Azimuth
88.089° E
Elevation
2.531°
Doppler factor
1
Orbital elements
Apogee altitude
486.175 km
Perigee altitude
483.883 km
Semi-major axis
6,863.166 km
Eccentricity
0.00017
Inclination
42.9989°
RAAN
301.6183°
Arg. of periapsis
260.384°
True anomaly
Unknown
Mean anomaly
214.6199°
Eccentric anomaly
Unknown
Mean motion
3.8173 °/min
Orbital period
94.31 mins
BSTAR
0.0014323
Loading maneuver chart data...
Loading SW <> Apogee altitude chart data...
Loading historical data...
Loading historical data...
Loading historical data...
Loading historical data...
Loading historical data...
Loading historical data...
Loading historical data...

STARLINK-33719 Visibility forecast

Observer location: undefined°, undefined°

Span
Click to sort rows by Start time (UTC) header in descending order
Start Az.
Max El. time (UTC)
Max El. Az.
Max El.
End time (UTC)
End Az.
6 mins2025-07-01 12:00:06.830Z235.185° WSW2025-07-01 12:03:06.830Z178.072° S40.726°2025-07-01 12:06:06.830Z78.519° E
5 mins2025-07-01 13:40:06.830Z281.171° WNW2025-07-01 13:42:06.830Z334.231° NNW38.899°2025-07-01 13:45:06.830Z68.449° E
6 mins2025-07-01 15:19:06.830Z293.372° NW2025-07-01 15:21:06.830Z330.552° NNW39.728°2025-07-01 15:25:06.830Z93.071° ESE
5 mins2025-07-01 16:58:06.830Z271.909° WNW2025-07-01 17:00:06.830Z225.703° WSW33.358°2025-07-01 17:03:06.830Z141.803° SSE
|